Wind_Speed
13 13 12 14 16 17 21 26 30 40 43 41 38 37 37 36 35 34 37 33 32 30 29 28 25 23 21 21 22 20 17 17 13 24 24 28 31 30 30 28 29 32 32 33 29
14 14 15 16 18 20 20 24 28 33 42 44 41 40 39 38 37 34 39 37 35 34 34 31 29 27 24 24 21 20 20 15 16 22 24 32 33 32 31 32 32 34 38 36 36
18 16 17 17 18 22 24 24 27 31 36 44 45 43 41 39 39 38 37 39 37 37 36 34 32 30 30 27 24 25 26 24 23 23 25 26 35 37 39 39 39 41 39 37 33
19 20 17 19 19 21 24 26 28 32 34 38 47 47 45 43 41 40 38 39 39 39 37 35 34 33 31 30 29 30 30 33 34 30 28 29 30 33 34 35 34 37 38 39 43
21 19 19 19 19 19 19 22 25 29 36 38 41 49 49 47 44 43 41 39 38 40 39 37 36 35 34 33 33 33 33 34 34 33 33 34 37 39 38 39 41 42 40 42 43
20 21 22 23 20 20 17 17 19 24 31 38 41 44 50 50 47 44 42 41 38 37 37 39 38 37 36 35 36 35 36 37 36 36 37 39 41 42 43 44 46 47 49 47 47
20 22 24 23 22 21 19 15 15 19 27 35 39 41 47 49 49 46 43 41 39 39 37 35 35 36 35 36 36 35 36 36 36 36 37 39 40 43 44 44 43 45 46 51 50
23 25 25 24 24 22 20 16 16 16 20 30 37 38 41 45 48 47 45 41 40 39 38 36 35 33 32 32 31 32 30 32 34 35 36 38 40 40 43 40 40 35 41 34 42
27 26 25 24 23 22 21 17 16 16 16 25 34 36 37 39 43 45 45 42 41 38 36 35 35 34 32 31 30 29 30 32 33 34 33 33 33 33 33 33 33 31 29 32 35
26 24 24 25 24 22 21 18 16 16 14 22 30 32 33 35 37 40 42 41 40 38 36 35 34 32 31 29 28 28 30 31 30 27 26 23 22 20 20 16 21 20 14 7 23
29 29 25 23 22 22 20 18 16 14 13 21 27 30 31 31 32 35 37 39 39 38 36 35 32 29 28 27 28 29 27 26 21 17 12 14 14 6 4 22 17 3 6 16 24
30 27 25 23 23 20 19 17 14 11 9 19 25 28 29 29 29 31 33 35 35 35 36 34 32 29 27 27 25 23 21 17 16 11 6 5 9 12 6 3 9 18 7 16 22
30 29 29 26 26 22 19 16 15 11 8 18 24 26 26 27 28 28 30 30 31 33 32 31 30 28 25 23 20 19 17 16 13 12 9 16 13 13 9 5 21 14 3 7 15
34 32 33 31 29 26 21 18 16 13 13 16 21 24 25 26 26 27 26 26 27 28 28 28 27 25 23 19 19 17 17 16 11 14 18 18 7 3 4 2 11 20 11 3 2
38 36 35 35 31 29 24 19 17 17 19 19 19 21 24 25 25 25 25 25 25 25 26 26 26 23 23 21 18 16 17 14 16 21 27 20 6 4 1 6 10 17 8 3 8
40 39 36 34 30 28 25 20 17 19 21 20 21 21 23 23 23 24 23 23 23 24 25 26 26 24 22 20 16 16 15 14 20 28 26 13 4 9 6 7 12 11 6 11 0
37 35 31 32 27 27 25 21 19 22 25 23 24 23 22 22 23 22 21 21 22 23 27 28 25 23 23 21 17 16 15 14 20 32 29 17 9 19 11 10 12 13 10 10 11
36 34 33 30 28 27 26 24 23 27 24 25 25 25 24 23 26 24 22 22 24 26 28 26 23 24 23 20 17 18 19 20 24 38 33 19 8 4 3 5 6 9 10 11 13
33 33 34 33 30 28 28 29 22 21 20 24 27 27 26 27 26 24 23 23 23 24 24 24 25 24 21 18 19 19 21 23 20 24 28 24 19 10 3 4 6 4 6 12 16
26 27 30 32 31 31 32 27 27 23 21 31 29 29 28 30 26 24 23 23 24 25 27 27 26 24 22 21 23 26 28 26 20 25 22 18 10 4 6 10 8 7 4 3 6
19 24 27 28 29 33 35 31 33 31 32 34 34 32 31 32 29 25 24 25 26 26 27 26 26 26 25 26 28 27 28 25 22 20 20 17 16 8 8 14 14 13 10 7 8
16 17 19 22 28 33 35 35 47 46 42 43 29 27 30 33 30 27 26 24 26 27 28 26 25 24 26 27 24 26 26 26 24 22 22 20 24 24 19 20 9 14 14 14 14
16 16 18 21 25 29 31 38 48 51 51 40 33 35 37 37 34 26 23 27 28 26 26 28 29 27 28 30 30 30 27 23 19 19 16 14 12 18 13 16 14 15 15 15 15
13 16 20 20 22 24 29 36 43 53 51 46 41 37 36 25 33 26 26 28 27 32 33 30 27 28 27 30 29 28 28 27 27 27 22 21 18 15 15 18 19 21 17 21 20
17 17 19 22 24 24 30 38 45 43 45 44 42 40 37 39 35 29 21 23 31 35 35 33 32 31 32 34 35 29 32 33 32 30 27 21 19 19 21 25 25 19 26 25 27
13 18 20 22 25 26 30 38 42 45 41 47 48 46 44 41 21 7 23 29 31 32 36 37 37 33 36 38 37 37 37 38 39 38 30 22 22 25 27 30 33 30 26 31 37
15 23 24 20 12 16 26 34 45 43 30 42 44 43 43 42 37 30 40 38 39 33 38 42 42 39 42 42 40 40 39 41 41 38 35 33 30 29 31 38 38 37 34 35 41
Wind_Direction
304 300 301 289 280 268 257 249 243 236 232 230 227 224 223 223 223 223 220 218 218 218 220 220 217 220 219 222 220 218 217 218 241 240 248 250 251 250 254 258 257 263 265 270 275
298 307 299 297 287 274 266 252 246 240 233 229 226 223 222 221 222 224 220 220 218 221 223 224 225 223 226 229 226 228 216 234 223 236 242 244 248 248 249 257 260 263 264 269 287
301 304 303 299 292 279 268 262 250 241 236 229 226 223 222 221 220 222 222 221 222 222 223 225 226 227 227 227 230 235 226 218 232 248 247 247 248 251 254 258 263 263 261 260 257
302 305 308 306 298 287 270 262 255 241 235 231 225 223 222 221 222 222 223 221 223 226 227 226 229 231 232 232 233 236 240 244 250 255 257 259 258 255 256 258 257 263 265 268 266
298 306 312 315 306 300 276 267 256 242 232 229 226 222 221 221 222 222 223 223 224 227 228 230 231 233 236 236 237 238 242 248 254 257 260 261 263 263 261 265 267 265 262 262 264
298 302 311 315 316 314 293 273 263 244 235 227 225 223 221 221 221 222 223 224 226 228 229 231 233 236 239 242 243 245 246 248 252 256 259 260 262 264 263 261 264 264 265 261 261
296 302 309 311 317 318 310 289 275 258 238 227 224 222 221 220 221 222 223 224 226 229 231 233 235 239 241 243 246 250 253 256 258 257 259 261 264 266 266 266 266 267 266 268 266
291 298 304 307 312 314 314 297 285 272 249 228 221 221 221 219 220 222 223 223 225 229 231 233 236 239 240 245 248 250 256 259 261 263 265 272 271 272 273 274 273 267 275 259 276
290 294 297 300 306 309 315 301 288 284 261 227 218 219 219 219 219 220 223 223 225 228 231 233 236 240 243 247 252 256 258 260 264 270 272 269 272 274 278 283 280 275 270 272 275
289 291 293 296 301 301 309 303 290 288 269 222 213 215 215 216 218 219 221 223 225 227 229 232 235 239 243 248 253 256 260 266 269 270 272 278 273 282 297 323 316 280 252 173 279
280 284 288 290 294 296 303 302 286 288 269 214 204 207 208 211 214 216 220 222 225 227 230 232 235 237 241 247 253 258 259 260 265 266 271 268 281 292 79 313 337 170 186 201 271
277 279 281 288 291 290 296 300 275 274 260 206 202 201 204 207 210 212 217 220 223 226 230 232 235 238 242 247 250 249 250 247 242 251 197 156 80 99 79 198 126 130 248 203 245
274 276 277 284 287 283 288 295 266 250 236 204 200 204 204 206 209 214 217 218 219 221 224 226 229 232 237 239 232 227 230 229 228 170 208 102 45 14 40 56 163 174 203 219 222
270 273 275 279 278 277 282 283 260 236 213 202 202 203 204 208 211 213 214 216 216 217 217 218 219 220 218 211 210 217 227 232 219 178 163 110 136 330 59 191 228 210 192 349 73
269 272 272 276 269 266 270 268 255 229 218 208 206 206 205 206 209 213 213 213 211 210 211 211 211 204 195 198 205 217 229 222 184 154 157 159 150 126 127 171 227 246 238 113 133
266 267 269 267 258 253 256 256 247 226 220 211 210 209 208 207 208 211 211 208 206 207 206 202 194 188 192 195 204 221 215 200 180 178 162 138 141 190 321 279 222 222 214 162 281
264 260 257 256 250 243 244 246 235 217 214 206 209 208 208 210 204 201 200 197 195 198 191 182 186 192 194 195 202 211 194 181 173 175 182 162 207 248 300 297 248 230 216 220 202
256 253 251 248 242 237 235 235 226 220 216 206 206 209 210 205 193 194 198 198 196 189 182 187 194 196 194 198 196 201 182 175 178 181 176 181 213 271 295 326 292 244 231 235 237
252 247 242 239 236 229 226 227 216 217 219 220 206 203 204 197 195 196 198 201 194 191 192 194 196 204 202 200 195 188 172 188 178 179 180 186 181 167 171 34 358 331 281 247 245
245 240 234 232 227 220 222 217 198 176 185 225 225 203 200 196 198 201 203 197 196 196 197 199 204 200 206 202 191 184 179 177 171 165 147 150 183 197 261 322 308 285 246 249 273
236 233 227 226 220 217 217 209 190 174 189 217 208 204 199 199 203 205 204 199 199 197 201 202 205 207 205 198 193 192 180 181 172 169 167 180 193 137 239 290 296 295 293 285 279
223 217 216 214 212 214 214 203 185 181 194 207 206 211 206 205 210 209 205 204 205 204 209 204 212 215 201 197 196 190 191 185 183 182 182 167 161 152 163 247 267 295 298 299 300
230 222 218 213 208 209 206 200 192 196 202 201 212 212 202 206 211 208 211 212 210 213 220 218 212 213 201 194 189 188 195 213 212 206 185 186 189 217 239 252 257 275 281 283 293
220 213 214 216 217 207 204 207 204 204 209 214 215 214 207 206 217 214 216 222 220 219 219 222 217 216 194 203 199 197 206 211 218 214 203 193 222 227 244 247 251 261 266 281 285
211 216 207 210 214 222 213 203 205 212 214 212 211 216 213 210 214 216 220 239 234 226 221 225 219 217 200 206 203 202 224 220 227 233 222 204 216 237 250 259 256 255 267 284 289
203 204 205 210 216 201 223 207 211 209 214 216 216 212 210 204 194 197 194 247 249 237 233 227 225 220 212 211 217 219 222 221 227 235 240 233 233 239 250 254 263 266 280 290 287
207 199 218 211 224 237 228 216 212 206 225 222 222 220 216 207 193 196 213 205 221 228 233 231 229 222 223 220 221 224 232 237 240 248 247 251 255 258 259 264 273 280 281 280 285
Height
10917 10915 10914 10913 10911 10910 10910 10910 10912 10916 10921 10926 10931 10937 10942 10947 10952 10956 10961 10966 10971 10974 10977 10979 10983 10985 10986 10987 10989 10991 10994 10994 10996 10997 10996 10995 10996 10998 11000 11003 11005 11004 11006 11004 11002
10914 10912 10910 10908 10907 10905 10905 10905 10906 10908 10912 10918 10924 10930 10935 10940 10946 10950 10955 10960 10965 10968 10971 10975 10979 10981 10985 10986 10989 10990 10989 10989 10990 10992 10993 10995 10996 10998 11000 11001 11001 11000 11000 11003 10998
10910 10908 10906 10904 10902 10900 10898 10898 10899 10901 10904 10909 10916 10922 10927 10933 10938 10943 10948 10954 10959 10962 10966 10970 10974 10977 10979 10982 10987 10985 10986 10986 10986 10989 10992 10993 10994 10996 10996 10999 10996 10995 10998 11001 10993
10905 10903 10901 10899 10897 10894 10892 10891 10891 10893 10896 10900 10906 10913 10920 10925 10931 10936 10942 10948 10953 10956 10961 10965 10969 10972 10976 10980 10983 10983 10983 10983 10985 10989 10991 10992 10991 10991 10992 10991 10993 10990 10992 10989 10986
10900 10898 10896 10894 10891 10888 10885 10884 10883 10884 10887 10891 10897 10904 10911 10917 10923 10929 10935 10941 10946 10950 10955 10959 10963 10967 10970 10973 10975 10978 10981 10981 10983 10987 10988 10986 10983 10982 10986 10984 10984 10984 10985 10985 10984
10895 10893 10891 10889 10886 10883 10880 10878 10877 10877 10879 10884 10889 10894 10902 10908 10915 10921 10928 10935 10940 10943 10948 10953 10957 10960 10963 10967 10969 10973 10974 10974 10979 10981 10979 10978 10976 10976 10975 10978 10975 10976 10975 10978 10977
10889 10888 10886 10883 10881 10878 10875 10873 10872 10871 10872 10876 10881 10887 10893 10900 10907 10913 10921 10928 10933 10936 10942 10947 10950 10953 10957 10959 10962 10966 10967 10968 10970 10970 10970 10970 10968 10966 10965 10966 10972 10971 10972 10970 10967
10884 10882 10880 10878 10876 10874 10871 10869 10867 10866 10866 10868 10874 10880 10885 10892 10899 10906 10914 10921 10925 10930 10935 10940 10943 10947 10950 10953 10956 10957 10961 10960 10960 10962 10963 10961 10959 10957 10957 10961 10965 10969 10965 10963 10964
10878 10877 10875 10873 10871 10869 10866 10864 10863 10862 10861 10862 10867 10873 10880 10886 10893 10899 10906 10913 10919 10924 10929 10933 10936 10941 10945 10948 10950 10953 10952 10952 10952 10954 10956 10954 10949 10952 10952 10955 10959 10962 10960 10959 10953
10872 10871 10870 10868 10866 10864 10862 10860 10858 10857 10856 10856 10861 10868 10874 10880 10886 10892 10898 10905 10911 10917 10922 10926 10931 10936 10939 10942 10944 10945 10945 10945 10945 10946 10947 10948 10946 10947 10951 10951 10948 10951 10951 10950 10950
10865 10864 10864 10862 10861 10860 10858 10856 10854 10854 10851 10853 10857 10862 10868 10875 10880 10887 10892 10898 10904 10910 10915 10919 10925 10930 10933 10936 10936 10937 10939 10939 10939 10941 10944 10938 10941 10942 10943 10944 10944 10947 10949 10946 10943
10857 10857 10857 10857 10856 10855 10854 10852 10851 10850 10850 10851 10855 10860 10865 10871 10876 10881 10886 10892 10898 10904 10908 10914 10919 10923 10926 10928 10931 10932 10933 10935 10936 10938 10938 10935 10935 10935 10938 10936 10939 10940 10935 10938 10935
10849 10850 10850 10851 10850 10850 10850 10849 10848 10848 10849 10850 10854 10858 10863 10867 10872 10876 10881 10887 10892 10897 10902 10908 10913 10917 10920 10923 10924 10926 10928 10930 10932 10934 10933 10930 10930 10929 10930 10930 10927 10931 10923 10929 10930
10840 10842 10842 10843 10844 10845 10845 10845 10845 10846 10848 10849 10852 10855 10860 10864 10868 10871 10876 10882 10887 10892 10897 10902 10907 10911 10915 10918 10919 10921 10923 10925 10928 10931 10931 10928 10928 10928 10929 10929 10925 10927 10929 10928 10927
10830 10832 10833 10834 10837 10838 10840 10841 10841 10843 10845 10847 10850 10853 10857 10861 10864 10868 10872 10877 10883 10887 10892 10897 10902 10906 10910 10913 10916 10917 10919 10921 10925 10926 10923 10925 10929 10930 10931 10933 10929 10927 10929 10928 10928
10818 10820 10823 10824 10827 10831 10833 10836 10837 10840 10842 10845 10849 10851 10855 10859 10862 10864 10869 10874 10878 10883 10888 10892 10897 10902 10906 10910 10912 10913 10915 10917 10919 10924 10927 10931 10930 10931 10929 10928 10931 10928 10930 10929 10928
10806 10809 10812 10813 10818 10822 10826 10830 10833 10834 10836 10840 10845 10849 10853 10857 10860 10863 10867 10871 10876 10880 10884 10889 10894 10898 10902 10906 10907 10908 10911 10914 10915 10919 10927 10923 10922 10926 10924 10923 10923 10925 10924 10925 10930
10793 10797 10801 10804 10809 10815 10819 10823 10826 10828 10832 10835 10839 10845 10850 10854 10859 10862 10866 10870 10873 10878 10883 10888 10893 10894 10897 10901 10904 10905 10908 10909 10910 10918 10923 10925 10926 10923 10924 10922 10920 10921 10922 10924 10928
10780 10785 10789 10794 10800 10807 10812 10814 10822 10829 10830 10832 10834 10839 10845 10852 10857 10861 10864 10868 10872 10877 10883 10886 10889 10893 10896 10898 10900 10903 10907 10907 10909 10915 10920 10921 10923 10923 10921 10921 10921 10922 10920 10923 10927
10770 10774 10778 10784 10791 10798 10803 10810 10817 10820 10829 10828 10836 10836 10841 10849 10855 10859 10861 10866 10869 10874 10878 10882 10886 10890 10892 10894 10896 10898 10900 10905 10909 10913 10916 10917 10919 10922 10921 10918 10922 10923 10923 10922 10923
10761 10764 10770 10776 10783 10790 10794 10803 10811 10817 10822 10819 10825 10831 10837 10845 10851 10855 10859 10863 10867 10871 10875 10880 10882 10885 10888 10890 10892 10896 10898 10903 10907 10911 10915 10914 10914 10922 10924 10917 10921 10921 10921 10920 10921
10757 10761 10765 10770 10775 10780 10787 10796 10803 10807 10810 10816 10823 10831 10837 10842 10847 10852 10856 10862 10866 10868 10871 10877 10880 10881 10885 10887 10892 10895 10898 10899 10903 10907 10912 10914 10911 10910 10915 10918 10919 10921 10921 10920 10917
10755 10760 10764 10767 10770 10773 10780 10788 10796 10803 10806 10816 10819 10823 10828 10836 10842 10850 10856 10857 10861 10866 10869 10870 10872 10876 10880 10884 10886 10890 10895 10899 10903 10905 10909 10912 10913 10915 10916 10915 10916 10918 10918 10918 10918
10752 10755 10760 10764 10769 10774 10780 10786 10793 10795 10805 10812 10815 10819 10829 10834 10839 10847 10848 10852 10857 10858 10860 10865 10870 10872 10879 10880 10886 10887 10890 10894 10895 10895 10904 10911 10912 10911 10912 10912 10913 10913 10912 10914 10913
10747 10750 10754 10758 10763 10770 10774 10779 10785 10794 10799 10806 10811 10816 10822 10827 10832 10840 10846 10849 10850 10852 10855 10859 10863 10867 10874 10875 10877 10877 10882 10885 10888 10889 10894 10905 10909 10908 10906 10904 10905 10907 10908 10907 10906
10746 10747 10750 10754 10757 10759 10771 10773 10780 10784 10792 10797 10801 10808 10811 10823 10833 10839 10849 10842 10844 10849 10850 10852 10857 10863 10867 10869 10870 10873 10875 10878 10879 10879 10885 10896 10900 10900 10898 10898 10896 10899 10901 10897 10894
10742 10745 10746 10750 10759 10763 10765 10767 10770 10783 10793 10794 10801 10807 10810 10818 10824 10829 10835 10835 10834 10840 10842 10845 10849 10855 10856 10861 10865 10867 10869 10870 10870 10874 10877 10882 10889 10893 10891 10886 10887 10889 10893 10890 10883